[[{"header":{"parameterUnit":"m.s-1","parameterCategory":1,"la1":30.2991,"la2":30.254,"lo1":-89.0895,"lo2":-89.0444,"dy":0.0017,"dx":0.0017,"nx":28,"ny":28,"refTime":"2025-07-31T09:00:00:Z","depth":0,"parameterNumber":2,"parameterNumberName":"U-component_of_WINDS"},"data":[0,0,0,0,0,0,0,0,0,0,0,0,0,0,0,0,0,0,0,0,0,0,0,0,0,0,0,0,0,0,0,0,0,0,0,0,0,0,0,0,0,0,0,0,0,0,0,0,0,0,0,0,0,0,0,0,0,0,4.1634,4.1635,0,4.1776,4.1778,4.1779,4.1716,4.1712,4.1709,4.1706,4.1851,4.1858,4.1865,0,0,0,0,0,0,0,0,0,0,0,0,0,4.1306,4.1312,4.1634,4.1635,4.1637,4.1776,4.1778,4.178,4.1717,4.1712,4.1708,4.1704,4.1849,4.1858,4.1866,0,0,0,0,0,0,0,0,0,0,0,0,0,4.1449,4.1315,4.1633,4.1622,4.1623,4.1776,4.1778,4.178,4.1717,4.1712,4.1707,4.1702,4.1846,4.1857,4.1867,4.2039,0,0,4.19,4.1905,0,0,0,0,0,0,0,0,4.1441,4.1461,4.1622,4.1623,4.1624,4.1723,4.1716,4.1867,4.1719,4.1682,4.1705,4.1699,4.1813,4.1826,4.1864,4.2046,4.2052,4.1901,4.1908,4.1912,4.1915,0,0,0,0,0,0,0,4.1431,4.1454,4.169,4.1625,4.1626,4.161,4.1625,4.1744,4.1775,4.1684,4.168,4.1698,4.1812,4.1854,4.1867,4.2055,4.1901,4.191,4.1917,4.1921,4.2384,4.2389,0,0,0,0,0,0,4.1421,4.1446,4.1685,4.1694,4.1517,4.162,4.1636,4.1697,4.1774,4.178,4.1702,4.1694,4.1838,4.1855,4.1872,4.2077,4.1912,4.1922,4.1928,4.2378,4.2385,4.2391,0,0,0,0,0,0,4.1414,4.1443,4.168,4.1569,4.1598,4.1632,4.17,4.1702,4.1744,4.1787,4.1792,4.1739,4.1835,4.1857,4.1998,4.2082,4.1927,4.1937,4.2371,4.238,4.2388,4.249,0,0,0,0,0,0,4.1405,4.1441,4.1507,4.1571,4.1604,4.1803,4.1705,4.1709,4.1762,4.1754,4.1823,4.183,4.1832,4.1982,4.2009,4.2094,4.1945,4.2364,4.2375,4.2385,4.2479,4.2501,4.252,0,0,0,0,0,4.1394,4.153,4.151,4.1539,4.1687,4.1808,4.1827,4.1828,4.177,4.1836,4.1863,4.1827,4.2069,4.1997,4.2027,4.2116,4.2358,4.2372,4.2385,4.247,4.2497,4.2519,0,0,0,0,0,0,4.1474,4.1538,4.1517,4.1678,4.1738,4.1797,4.1881,4.1856,4.1934,4.1922,4.192,4.1936,4.2082,4.2113,4.2032,4.2286,4.2205,4.2224,4.226,4.2285,4.2305,4.2294,4.1954,0,0,0,0,0,4.1511,4.1604,4.1655,4.1792,4.1823,4.1847,4.19,4.1895,4.1957,4.1982,4.2021,4.2082,4.2172,4.2231,4.2316,4.2484,4.2498,4.256,4.2581,4.2597,4.2613,4.2704,4.2732,4.2434,4.2434,4.2434,0,0,4.1587,4.1633,4.1692,4.1809,4.1855,4.1951,4.1869,4.1974,4.2045,4.1998,4.2133,4.2164,4.2232,4.2388,4.2458,4.2418,4.2699,4.2614,4.2627,4.2634,4.272,4.2748,4.2773,4.2443,4.2442,4.244,0,0,4.1774,4.182,4.1938,4.1986,4.2057,4.2072,4.2101,4.2164,4.2182,4.2318,4.2284,4.2369,4.2524,4.2574,4.2619,4.2827,4.2796,4.2855,4.296,4.3048,4.3071,4.3092,4.3164,4.3191,4.2871,4.2872,4.2872,0,4.186,4.2003,4.2002,4.211,4.2162,4.2125,4.2245,4.2291,4.2387,4.2423,4.2378,4.2571,4.2614,4.278,4.2831,4.287,4.2902,4.2846,4.3068,4.3089,4.3108,4.3177,4.3205,4.2878,4.2877,4.2877,4.2876,0,4.2104,4.2204,4.2292,4.2384,4.2447,4.256,4.2576,4.2639,4.263,4.265,4.2788,4.2839,4.2933,4.2973,4.2965,4.3138,4.3111,4.3068,4.2985,4.3143,4.3208,4.3234,4.2887,4.2885,4.2883,4.2882,0,0,4.2344,4.2436,4.2467,4.2508,4.2584,4.2662,4.2774,4.2866,4.2919,4.2987,4.308,4.3212,4.3172,4.3224,4.3221,4.3299,4.3458,4.3246,4.3247,4.3282,4.365,4.3681,4.3712,4.3439,4.3444,4.3448,4.3644,0,4.2536,4.2731,4.2734,4.2914,4.3006,4.2972,4.3069,4.3126,4.3148,4.323,4.3254,4.3347,4.3288,4.3319,4.3395,4.3423,4.3532,4.3409,4.3524,4.3529,4.3506,4.3746,4.3778,4.396,4.3669,4.3674,4.3677,0,4.2785,4.286,4.3049,4.3111,4.3149,4.3237,4.3321,4.34,4.3464,4.3474,4.3533,4.3518,4.3632,4.3548,4.3704,4.3621,4.3668,4.369,4.3697,4.3706,4.361,4.3759,4.4019,4.4045,4.3717,4.3714,4.3711,0,4.2939,4.3087,4.3219,4.3256,4.3332,4.3394,4.3429,4.3487,4.3542,4.3617,4.3652,4.3739,4.3786,4.3854,4.3863,4.3801,4.4019,4.3936,4.403,4.403,4.4076,4.4072,4.4344,4.4111,4.411,4.411,4.4109,0,4.3151,4.3267,4.3289,4.337,4.3499,4.3502,4.3629,4.3659,4.3712,4.3797,4.3775,4.3856,4.3864,4.3948,4.3956,4.4083,4.4106,4.4116,4.4117,4.4117,4.4116,4.4147,4.4133,4.4117,4.4115,4.4114,4.4113,0,4.3343,4.3363,4.3504,4.3565,4.3583,4.3675,4.3727,4.3804,4.3824,4.3933,4.3959,4.3991,4.4088,4.4104,4.4219,4.4225,4.4376,4.4365,4.4354,4.4352,4.4444,4.4434,4.4744,4.4784,4.4526,4.4529,4.4531,0,4.3476,4.3565,4.3635,4.3691,4.3729,4.3819,4.3875,4.3882,4.3941,4.4021,4.4088,4.4183,4.4259,4.4416,4.4449,4.4536,4.4525,4.4628,4.4538,4.4536,4.4524,4.4518,4.4526,4.4644,4.4647,4.4649,4.4651,0,4.371,4.3715,4.3796,4.3882,4.395,4.4018,4.4081,4.4129,4.4143,4.4211,4.431,4.4369,4.4486,4.458,4.4667,4.4702,4.468,4.468,4.4706,4.4706,4.4695,4.47,4.4399,4.4672,4.467,4.4668,4.4667,4.4666,4.3875,4.3952,4.4013,4.4105,4.4154,4.4214,4.4289,4.4319,4.4402,4.4497,4.4496,4.4604,4.4666,4.478,4.4822,4.4906,4.4873,4.4911,4.4921,4.4929,4.4937,4.4684,4.4923,4.4922,4.4922,4.4921,4.4921,0,4.4105,4.4143,4.4228,4.4318,4.439,4.4363,4.4432,4.4494,4.459,4.4649,4.4725,4.4838,4.4929,4.497,4.506,4.512,4.5111,4.5143,4.5137,4.5145,4.4963,4.493,4.5148,4.5148,4.5148,4.5148,4.5148,4.5148,4.4233,4.4361,4.4374,4.4526,4.4563,4.4668,4.471,4.4766,4.4813,4.4941,4.5016,4.5043,4.5095,4.5188,4.527,4.528,4.5313,4.5349,4.5354,4.5182,4.5158,4.5136,4.5106,4.5357,4.5357,4.5529,4.5531,4.5532]},{"header":{"parameterUnit":"m.s-1","parameterCategory":1,"la1":30.2991,"la2":30.254,"lo1":-89.0895,"lo2":-89.0444,"dy":0.0017,"dx":0.0017,"nx":28,"ny":28,"refTime":"2025-07-31T09:00:00:Z","depth":0,"parameterNumber":3,"parameterNumberName":"V-component_of_WINDS"},"data":[0,0,0,0,0,0,0,0,0,0,0,0,0,0,0,0,0,0,0,0,0,0,0,0,0,0,0,0,0,0,0,0,0,0,0,0,0,0,0,0,0,0,0,0,0,0,0,0,0,0,0,0,0,0,0,0,0,0,0.1357,0.1357,0,0.1372,0.1372,0.1372,0.1319,0.1317,0.1316,0.1314,0.1334,0.1336,0.1338,0,0,0,0,0,0,0,0,0,0,0,0,0,0.1287,0.1289,0.1357,0.1357,0.1358,0.1372,0.1372,0.1372,0.1319,0.1317,0.1315,0.1314,0.1333,0.1336,0.1338,0,0,0,0,0,0,0,0,0,0,0,0,0,0.1312,0.1289,0.1357,0.1333,0.1331,0.1372,0.1372,0.1372,0.132,0.1317,0.1315,0.1313,0.1333,0.1336,0.1339,0.1405,0,0,0.1348,0.1349,0,0,0,0,0,0,0,0,0.131,0.1314,0.1336,0.1335,0.1332,0.1341,0.1355,0.1384,0.132,0.1324,0.1314,0.1312,0.1339,0.1341,0.1349,0.1406,0.1407,0.1348,0.135,0.1351,0.1352,0,0,0,0,0,0,0,0.1309,0.1313,0.1363,0.1337,0.1334,0.1322,0.1323,0.136,0.1345,0.1324,0.132,0.1322,0.1337,0.1346,0.1349,0.1407,0.1348,0.1351,0.1353,0.1354,0.1519,0.1521,0,0,0,0,0,0,0.131,0.1312,0.1363,0.1364,0.1315,0.1326,0.1326,0.1341,0.1344,0.1342,0.1324,0.1319,0.1342,0.1346,0.135,0.1427,0.1351,0.1354,0.1356,0.1516,0.152,0.1522,0,0,0,0,0,0,0.1308,0.1315,0.1362,0.1337,0.1342,0.1329,0.1346,0.1342,0.1351,0.1344,0.1342,0.1336,0.1341,0.1346,0.1391,0.1427,0.1355,0.1358,0.1513,0.1517,0.1521,0.1584,0,0,0,0,0,0,0.1307,0.1314,0.1339,0.1338,0.1343,0.1403,0.1348,0.1344,0.1356,0.135,0.1355,0.1354,0.1339,0.1387,0.1394,0.143,0.1361,0.151,0.1515,0.152,0.1579,0.159,0.1599,0,0,0,0,0,0.1304,0.1357,0.134,0.1347,0.1373,0.1405,0.1408,0.1389,0.1359,0.1384,0.138,0.1353,0.1422,0.1392,0.14,0.1437,0.1508,0.1514,0.1519,0.1574,0.1587,0.1599,0,0,0,0,0,0,0.1365,0.1357,0.1338,0.1392,0.1399,0.1396,0.1426,0.1404,0.1421,0.1415,0.1392,0.1394,0.1444,0.1445,0.1412,0.1502,0.146,0.1468,0.1499,0.1512,0.1521,0.152,0.1363,0,0,0,0,0,0.1384,0.1409,0.1401,0.1449,0.1454,0.144,0.1453,0.1437,0.1444,0.1448,0.1446,0.1456,0.1479,0.1495,0.1517,0.1578,0.1579,0.1608,0.1618,0.1626,0.1633,0.1666,0.1678,0.1541,0.1541,0.1541,0,0,0.1425,0.1424,0.1441,0.1462,0.1465,0.1492,0.1443,0.1474,0.1494,0.1453,0.1495,0.1495,0.1504,0.1557,0.1581,0.156,0.1671,0.1634,0.164,0.1643,0.1673,0.1686,0.1697,0.1545,0.1545,0.1544,0,0,0.1513,0.1515,0.1555,0.1559,0.1564,0.1554,0.1564,0.1564,0.1561,0.1603,0.1573,0.1597,0.1638,0.1646,0.1655,0.1744,0.1721,0.1752,0.1805,0.1837,0.1848,0.1857,0.1889,0.1901,0.1759,0.1759,0.1759,0,0.1564,0.1602,0.1579,0.1611,0.1621,0.1583,0.1624,0.163,0.1643,0.1652,0.1627,0.1677,0.1681,0.1735,0.1757,0.1766,0.1777,0.1752,0.1848,0.1857,0.1866,0.1896,0.1908,0.1763,0.1763,0.1762,0.1762,0,0.1664,0.1691,0.1723,0.1734,0.1748,0.1784,0.1767,0.1784,0.1767,0.176,0.1804,0.1806,0.1827,0.1839,0.1824,0.1891,0.1878,0.1851,0.1809,0.1883,0.1911,0.1922,0.1768,0.1767,0.1766,0.1765,0,0,0.1792,0.1788,0.18,0.1805,0.1808,0.1829,0.1864,0.1882,0.1897,0.1908,0.1937,0.1972,0.1946,0.1957,0.1942,0.197,0.204,0.194,0.194,0.1958,0.2115,0.2135,0.2149,0.2025,0.2027,0.2028,0.2114,0,0.1878,0.1936,0.1915,0.1975,0.2,0.1964,0.1994,0.2,0.1994,0.2015,0.2009,0.2034,0.1999,0.2005,0.2031,0.2026,0.2072,0.202,0.2053,0.2054,0.2051,0.2164,0.2185,0.2266,0.2125,0.2127,0.2128,0,0.1986,0.1998,0.206,0.2058,0.2068,0.2095,0.211,0.213,0.2136,0.213,0.2141,0.212,0.2155,0.2113,0.2161,0.2126,0.2138,0.2138,0.2141,0.2143,0.2096,0.2169,0.2292,0.2304,0.2145,0.2144,0.2143,0,0.2073,0.2105,0.2146,0.2151,0.2149,0.217,0.217,0.2174,0.2186,0.2199,0.2207,0.2225,0.2236,0.2251,0.2236,0.2206,0.2286,0.2242,0.2283,0.2283,0.2302,0.2301,0.2428,0.231,0.231,0.2309,0.2309,0,0.2171,0.2211,0.2185,0.221,0.2253,0.2229,0.2273,0.227,0.2273,0.2298,0.2268,0.2292,0.227,0.2293,0.2282,0.2323,0.2328,0.2325,0.2321,0.2328,0.2328,0.2336,0.233,0.2313,0.2312,0.2311,0.2311,0,0.2275,0.226,0.2302,0.2296,0.2296,0.2328,0.2323,0.2347,0.2338,0.237,0.2376,0.2364,0.2388,0.2374,0.2401,0.2393,0.2447,0.2436,0.2445,0.2442,0.2483,0.2479,0.2619,0.2636,0.2507,0.2508,0.2509,0,0.2339,0.2368,0.2365,0.2379,0.2381,0.2403,0.2415,0.2393,0.2407,0.2415,0.2438,0.246,0.2476,0.2517,0.2511,0.2531,0.252,0.2568,0.2523,0.2528,0.2521,0.2519,0.2522,0.2577,0.2579,0.258,0.2581,0,0.2454,0.2445,0.2462,0.2476,0.249,0.2501,0.251,0.2523,0.2501,0.2518,0.2542,0.2554,0.258,0.2602,0.2619,0.2621,0.2598,0.2595,0.2605,0.2612,0.2616,0.2614,0.2469,0.2592,0.2591,0.259,0.2589,0.2589,0.254,0.2564,0.2565,0.2585,0.2589,0.2597,0.2619,0.2612,0.2631,0.2649,0.2635,0.2664,0.2669,0.2688,0.2693,0.2716,0.2697,0.2712,0.2716,0.272,0.2726,0.2612,0.2719,0.2718,0.2718,0.2718,0.2718,0,0.2653,0.2652,0.267,0.2682,0.2698,0.2673,0.2681,0.2696,0.2721,0.2727,0.2743,0.2771,0.2792,0.2787,0.2806,0.2825,0.2815,0.2831,0.283,0.2831,0.2741,0.273,0.2839,0.2839,0.2839,0.2839,0.2839,0.2839,0.2714,0.2753,0.2743,0.2784,0.2782,0.2809,0.2815,0.2823,0.2827,0.2859,0.2876,0.2872,0.2873,0.2892,0.2911,0.2909,0.2918,0.2938,0.2932,0.2849,0.2837,0.2826,0.2815,0.294,0.294,0.3019,0.302,0.302]}]]